This is the latest recevied weather packets stored in our database for station/object DK8RG-15. If no packets are shown the sender has not sent any weather packets the latest 1 day(s).
| Time | Temp. | Humidity | Pressure | Rain* | Wind** | Luminosity | Snow |
|---|---|---|---|---|---|---|---|
| 1777989616 | 19.44° C | 63% | 1004.9 hPa | 0 mm | 0.45 m/s, 15° | - | - |
| 1777989016 | 19.44° C | 63% | 1005 hPa | 0 mm | 0.45 m/s, 16° | - | - |
| 1777988416 | 20° C | 63% | 1005 hPa | 0 mm | 0.45 m/s, 33° | - | - |
| 1777987816 | 20° C | 63% | 1005 hPa | 0 mm | 0.45 m/s, 357° | - | - |
| 1777987216 | 20° C | 63% | 1005 hPa | 0 mm | 0.45 m/s, 321° | - | - |
| 1777986616 | 19.44° C | 65% | 1005 hPa | 0 mm | 0.45 m/s, 346° | - | - |
| 1777986016 | 18.89° C | 65% | 1004.9 hPa | 0 mm | 0.45 m/s, 347° | - | - |
| 1777985416 | 19.44° C | 65% | 1005 hPa | 0 mm | 0.89 m/s, 307° | - | - |
| 1777984816 | 19.44° C | 65% | 1005 hPa | 0 mm | 0.89 m/s, 342° | - | - |
| 1777984217 | 18.89° C | 66% | 1005.9 hPa | 0 mm | 0.89 m/s, 301° | - | - |
| 1777983616 | 18.89° C | 67% | 1005.9 hPa | 0 mm | 0.89 m/s, 319° | - | - |
| 1777983016 | 18.89° C | 67% | 1005.9 hPa | 0 mm | 0.45 m/s, 4° | - | - |
| 1777982416 | 18.89° C | 67% | 1005.9 hPa | 0 mm | 0.45 m/s, 346° | - | - |
| 1777981817 | 18.33° C | 69% | 1005.9 hPa | 0 mm | 0.45 m/s, 313° | - | - |
| 1777981217 | 18.89° C | 69% | 1006 hPa | 0 mm | 0.45 m/s, 350° | - | - |
| 1777980617 | 18.89° C | 70% | 1006 hPa | 0 mm | 0.45 m/s, 327° | - | - |
| 1777980017 | 18.33° C | 70% | 1006 hPa | 0 mm | 0.45 m/s, 282° | - | - |
| 1777979416 | 18.33° C | 70% | 1006 hPa | 0 mm | 0.45 m/s, 268° | - | - |
| 1777978817 | 17.78° C | 73% | 1005.9 hPa | 0 mm | 0.45 m/s, 246° | - | - |
| 1777978217 | 16.67° C | 75% | 1005.8 hPa | 0 mm | 0.45 m/s, 248° | - | - |
| 1777977617 | 16.11° C | 76% | 1005.8 hPa | 0 mm | 0.45 m/s, 215° | - | - |
| 1777975217 | 16.11° C | 76% | 1006.8 hPa | 0 mm | 0.45 m/s, 218° | - | - |
| 1777974618 | 16.11° C | 76% | 1006.8 hPa | 0 mm | 0.45 m/s, 183° | - | - |
| 1777970417 | 15.56° C | 78% | 1006.8 hPa | 0 mm | 0.45 m/s, 172° | - | - |
* Rain latest hour (hover to see other rain measurements)
** Current wind speed in m/s (hover to see current wind gust speed)